This demonstration page uses our WeatherBlox Daily Observations layout. Learn more.

Left ArrowRight Arrow

Hourly Observations for July 6, 2020

Temp ( °F °C ) Dew Point ( °F °C ) Humidity (%) Winds ( mph kmh ) Pressure ( in mb ) Visibility ( mi km ) Precip ( " mm )
12:53 am 00:53 Clear 76 24.4 69 20.6 79 79 SSE 8 13 29.97 1015 10 16 0.00 0.00
1:53 am 01:53 Clear 75 23.9 69 20.6 82 82 S 8 13 29.97 1015 10 16 0.00 0.00
2:53 am 02:53 Clear 73 22.8 68 20 84 84 S 6 9 29.96 1014 9 14 0.00 0.00
3:53 am 03:53 Clear 72 22.2 67 19.4 84 84 S 3 6 29.95 1014 8 13 0.00 0.00
4:53 am 04:53 Clear 72 22.2 67 19.4 84 84 SSE 6 9 29.94 1014 9 14 0.00 0.00
5:53 am 05:53 Clear 71 21.7 67 19.4 87 87 SSE 3 6 29.96 1015 8 13 0.00 0.00
6:53 am 06:53 Sunny with Mist and Fog 70 21.1 66 18.9 87 87 Calm 29.97 1015 4 6 0.00 0.00
7:53 am 07:53 Sunny 75 23.9 68 20 79 79 SSE 5 7 29.98 1015 9 14 0.00 0.00
8:53 am 08:53 Sunny 78 25.6 69 20.6 74 74 S 8 13 30.00 1016 10 16 0.00 0.00
9:53 am 09:53 Sunny 80 26.7 69 20.6 69 69 SSE 5 7 30.01 1016 10 16 0.00 0.00
10:53 am 10:53 Sunny 83 28.3 70 21.1 65 65 VRB 6 9 30.00 1016 10 16 0.00 0.00
11:53 am 11:53 Mostly Sunny 85 29.4 69 20.6 59 59 SSE 7 11 29.99 1016 10 16 0.00 0.00
12:53 pm 12:53 Mostly Sunny 89 31.7 69 20.6 52 52 undefined N/A 29.97 1015 10 16 0.00 0.00
1:53 pm 13:53 Partly Cloudy 89 31.7 70 21.1 53 53 ENE 6 9 29.96 1015 10 16 0.00 0.00
2:53 pm 14:53 Cloudy 87 30.6 70 21.1 57 57 E 10 17 29.96 1015 10 16 0.00 0.00
3:53 pm 15:53 Mostly Sunny 86 30 69 20.6 57 57 E 12 19 29.95 1014 10 16 0.00 0.00
4:53 pm 16:53 Sunny 88 31.1 66 18.9 48 48 SSE 16 26 29.94 1014 10 16 0.00 0.00
5:53 pm 17:53 Partly Cloudy 88 31.1 70 21.1 55 55 SSE 10 17 29.93 1014 10 16 0.00 0.00
6:53 pm 18:53 Sunny 86 30 67 19.4 53 53 S 10 17 29.93 1013 10 16 0.00 0.00
7:53 pm 19:53 Sunny 84 28.9 67 19.4 57 57 SSE 13 20 29.92 1013 10 16 0.00 0.00
8:53 pm 20:53 Sunny 82 27.8 68 20 63 63 SE 10 17 29.93 1014 10 16 0.00 0.00
9:53 pm 21:53 Mostly Cloudy 79 26.1 68 20 69 69 SE 8 13 29.97 1015 10 16 0.00 0.00
10:53 pm 22:53 Mostly Cloudy 78 25.6 68 20 71 71 SE 7 11 30.01 1016 10 16 0.00 0.00
11:53 pm 23:53 Mostly Clear 75 23.9 69 20.6 82 82 NE 7 11 30.03 1017 10 16 0.00 0.00

Powered by AerisWeather